Find TshepisoSat

NORAD ID: 39417 Int'l Des: 2013-066 Owner: CPUT Country: ZA operational
LEOCIRCULARRETROGRADESSO

Live Position

Loading 3D Globe...

About TshepisoSat

Description loading...

Upcoming Passes

Passes for default location (London). Set your location on the main map for personalized predictions.

Altitude History

Loading altitude history...

Two-Line Element Set

1 39417U 13066B 26105.34077618 .00001958 00000-0 15647-3 0 9999
2 39417 97.8128 67.3440 0044938 101.6961 258.9310 15.00668026671306
Epoch: Apr 15, 2026 • Age: 12 hours

Current Status

Altitude 621.8 km
Velocity 7.53 km/s
Sub-Earth Point -70.06°S, 63.97°W
Launch Date Nov 21, 2013
Age 12.3 years
Type other

Technical Details

Classification Payload
Mass 1.20 kg
Dry Mass 1.20 kg
Total Mass 1.20 kg
Length 0.10 m
Diameter 0.10 m
Span 0.10 m
Shape Box
Manufacturer CPUT
Bus Type Cubesat 1U
Phase Status In Orbit
Owner/State CPUT/ZA

Most Searched